[[{"header":{"parameterUnit":"m.s-1","parameterCategory":1,"la1":30.2992,"la2":30.254,"lo1":-89.0895,"lo2":-89.0443,"dy":0.0025,"dx":0.0025,"nx":19,"ny":19,"refTime":"2026-03-18T03:00:00:Z","depth":0,"parameterNumber":2,"parameterNumberName":"U-component_of_WINDS"},"data":[0,0,0,-1.8008,-1.8011,-1.8134,-1.8135,-1.8292,-1.8294,0,0,0,0,0,0,0,0,0,0,0,-1.7972,-1.7974,-1.8008,-1.8011,-1.8134,-1.8135,-1.8292,-1.8294,0,0,0,0,0,0,0,0,0,0,0,-1.7972,-1.7973,-1.7975,-1.8012,-1.8134,-1.8135,-1.8292,-1.8198,0,0,0,0,0,0,0,0,0,0,-1.8079,-1.8047,-1.7973,-1.7975,-1.8012,-1.8134,-1.8135,-1.8194,-1.8204,-1.8236,0,-1.8266,0,-1.8282,-1.8304,-1.8305,0,0,0,-1.801,-1.8038,-1.8071,-1.7975,-1.8013,-1.8134,-1.8079,-1.82,-1.8211,-1.825,-1.8268,-1.8274,-1.8285,-1.8305,-1.8306,-1.8495,-1.8496,0,0,-1.8004,-1.7995,-1.8063,-1.8078,-1.806,-1.8075,-1.8082,-1.8207,-1.8226,-1.8269,-1.8278,-1.8288,-1.8306,-1.8307,-1.8494,-1.8495,0,0,0,-1.7984,-1.799,-1.802,-1.8072,-1.8094,-1.8078,-1.8087,-1.822,-1.8231,-1.8279,-1.8289,-1.8307,-1.8309,-1.8493,-1.8494,-1.8531,0,0,0,-1.798,-1.7979,-1.8017,-1.8013,-1.8092,-1.8159,-1.8098,-1.8222,-1.8236,-1.8289,-1.8307,-1.8311,-1.8492,-1.8494,-1.8528,-1.855,0,0,0,-1.7964,-1.7977,-1.7995,-1.8012,-1.8065,-1.8157,-1.8175,-1.8225,-1.8242,-1.8305,-1.8311,-1.8491,-1.8493,-1.8525,-1.8545,-1.8596,0,0,0,-1.7944,-1.8027,-1.7996,-1.8092,-1.8064,-1.8179,-1.8174,-1.826,-1.8318,-1.8308,-1.8492,-1.8494,-1.8524,-1.8542,-1.8593,-1.8637,-1.8655,0,0,-1.8044,-1.8039,-1.8096,-1.8071,-1.819,-1.8161,-1.8285,-1.8346,-1.836,-1.8449,-1.8453,-1.8529,-1.8545,-1.8596,-1.8759,-1.8773,0,0,0,-1.8124,-1.8165,-1.8198,-1.8253,-1.8302,-1.8345,-1.8388,-1.841,-1.8486,-1.8404,-1.8562,-1.8572,-1.8602,-1.8623,-1.8635,-1.8661,-1.8504,-1.8504,-1.8504,-1.8253,-1.8265,-1.836,-1.8387,-1.844,-1.8483,-1.8527,-1.8564,-1.8562,-1.8599,-1.8625,-1.8723,-1.8748,-1.8757,-1.8783,-1.865,-1.865,-1.865,-1.865,-1.8399,-1.8458,-1.8452,-1.8542,-1.8554,-1.863,-1.8673,-1.8669,-1.874,-1.8704,-1.8731,-1.8691,-1.8772,-1.8795,-1.8653,-1.8653,-1.8652,-1.8652,-1.8652,-1.8484,-1.8515,-1.854,-1.862,-1.8679,-1.8704,-1.8772,-1.8781,-1.879,-1.8816,-1.8844,-1.8844,-1.8844,-1.8829,-1.883,-1.883,-1.883,-1.883,-1.8831,-1.8562,-1.859,-1.8647,-1.8704,-1.874,-1.8787,-1.883,-1.8865,-1.8906,-1.8907,-1.8907,-1.89,-1.8778,-1.8746,-1.8836,-1.8835,-1.8834,-1.8834,-1.8834,-1.8705,-1.8674,-1.8762,-1.8797,-1.8864,-1.8922,-1.8932,-1.9002,-1.9032,-1.9065,-1.9052,-1.896,-1.8955,-1.8946,-1.892,-1.905,-1.905,-1.905,-1.905,-1.8777,-1.8775,-1.8866,-1.8921,-1.8977,-1.8995,-1.9091,-1.9125,-1.9154,-1.9173,-1.9156,-1.9122,-1.9112,-1.9113,-1.91,-1.9076,-1.9242,-1.9242,-1.9243,-1.8865,-1.8869,-1.895,-1.8978,-1.9031,-1.9076,-1.9167,-1.923,-1.9257,-1.9251,-1.9188,-1.918,-1.9125,-1.9107,-1.91,-1.908,-1.9035,0,0]},{"header":{"parameterUnit":"m.s-1","parameterCategory":1,"la1":30.2992,"la2":30.254,"lo1":-89.0895,"lo2":-89.0443,"dy":0.0025,"dx":0.0025,"nx":19,"ny":19,"refTime":"2026-03-18T03:00:00:Z","depth":0,"parameterNumber":3,"parameterNumberName":"V-component_of_WINDS"},"data":[0,0,0,-2.6201,-2.6203,-2.6301,-2.6302,-2.6427,-2.6428,0,0,0,0,0,0,0,0,0,0,0,-2.6172,-2.6173,-2.6201,-2.6204,-2.6301,-2.6302,-2.6426,-2.6428,0,0,0,0,0,0,0,0,0,0,0,-2.6171,-2.6172,-2.6174,-2.6204,-2.6301,-2.6302,-2.6426,-2.6352,0,0,0,0,0,0,0,0,0,0,-2.6257,-2.623,-2.6172,-2.6174,-2.6204,-2.6301,-2.6302,-2.6349,-2.6357,-2.6382,0,-2.6404,0,-2.6418,-2.6436,-2.6436,0,0,0,-2.6204,-2.6223,-2.625,-2.6174,-2.6205,-2.6301,-2.6257,-2.6353,-2.6363,-2.6393,-2.6406,-2.641,-2.642,-2.6437,-2.6437,-2.6579,-2.658,0,0,-2.6198,-2.6189,-2.6243,-2.6256,-2.6241,-2.6254,-2.626,-2.6359,-2.6373,-2.6406,-2.6413,-2.6422,-2.6438,-2.6439,-2.6579,-2.6579,0,0,0,-2.6183,-2.6186,-2.621,-2.6251,-2.6268,-2.6257,-2.6264,-2.6368,-2.6377,-2.6415,-2.6423,-2.6438,-2.644,-2.6578,-2.6579,-2.6601,0,0,0,-2.6179,-2.6176,-2.6207,-2.6203,-2.6266,-2.632,-2.6271,-2.637,-2.6382,-2.6423,-2.6438,-2.6441,-2.6577,-2.6578,-2.6599,-2.6612,0,0,0,-2.6166,-2.6175,-2.6189,-2.6202,-2.6244,-2.6318,-2.6333,-2.6373,-2.6387,-2.6437,-2.6441,-2.6577,-2.6578,-2.6597,-2.6609,-2.6646,0,0,0,-2.6148,-2.6208,-2.6189,-2.6259,-2.6243,-2.6331,-2.6332,-2.6398,-2.6444,-2.6439,-2.6577,-2.6579,-2.6596,-2.6607,-2.6643,-2.6673,-2.6685,0,0,-2.6218,-2.6216,-2.6258,-2.6244,-2.6333,-2.6317,-2.6409,-2.646,-2.6474,-2.6543,-2.6547,-2.6599,-2.6609,-2.6645,-2.6759,-2.6768,0,0,0,-2.6277,-2.6307,-2.6332,-2.6375,-2.6414,-2.6449,-2.6486,-2.6505,-2.6565,-2.6507,-2.6624,-2.663,-2.6651,-2.6666,-2.6674,-2.6692,-2.6586,-2.6586,-2.6585,-2.6362,-2.6376,-2.6445,-2.647,-2.6512,-2.6549,-2.6584,-2.6615,-2.6618,-2.6645,-2.6665,-2.6732,-2.6749,-2.6755,-2.6774,-2.6683,-2.6683,-2.6684,-2.6684,-2.6464,-2.6508,-2.6509,-2.6577,-2.6591,-2.6648,-2.6687,-2.6686,-2.6741,-2.6718,-2.6738,-2.671,-2.6765,-2.6782,-2.6685,-2.6685,-2.6685,-2.6685,-2.6685,-2.652,-2.6543,-2.6565,-2.6627,-2.6673,-2.6697,-2.6749,-2.6761,-2.6772,-2.6792,-2.6814,-2.6813,-2.6813,-2.6802,-2.6802,-2.6802,-2.6803,-2.6803,-2.6803,-2.6568,-2.6592,-2.6635,-2.6681,-2.671,-2.6748,-2.6787,-2.6815,-2.6849,-2.6853,-2.6854,-2.6852,-2.6769,-2.6746,-2.6807,-2.6806,-2.6805,-2.6805,-2.6805,-2.6664,-2.6644,-2.6709,-2.6738,-2.6793,-2.6838,-2.6852,-2.6909,-2.6934,-2.6959,-2.6954,-2.6891,-2.6889,-2.6883,-2.6864,-2.6952,-2.6952,-2.6952,-2.6952,-2.6709,-2.671,-2.6779,-2.6823,-2.6868,-2.6887,-2.696,-2.6991,-2.7019,-2.7036,-2.7025,-2.7002,-2.6995,-2.6998,-2.6989,-2.6972,-2.7085,-2.7085,-2.7085,-2.6768,-2.6773,-2.6832,-2.686,-2.6904,-2.6942,-2.701,-2.7061,-2.709,-2.709,-2.7048,-2.7043,-2.7006,-2.6993,-2.6991,-2.6977,-2.6946,0,0]}]]